カタログに戻る

OPS 2644 DEB

運用中PO
NORAD 3841·DEBRIS·🇺🇸 United States

打ち上げ Feb 5, 1969 から Vandenberg Space Force Base

Loading…

次のパス (今後24時間)

TLE

最新Source: Space-Track

元期: Sep 14, 2026, 02:32 UTC

1 03841U 69010D   26257.10619655  .00000040  00000-0  18019-3 0  9993
2 03841  80.1777 310.3385 0031579 240.1611 145.8590 12.66877695661980

AllMySatでOPS 2644 DEBをリアルタイム追跡

Download on the App Store